This is the latest recevied weather packets stored in our database for station/object VA3PC-13. If no packets are shown the sender has not sent any weather packets the latest 10 day(s).
| Time | Temp. | Humidity | Pressure | Rain* | Wind** | Luminosity | Snow |
|---|---|---|---|---|---|---|---|
| 1777628118 | 0.56° C | 73% | 983.8 hPa | 0 mm | - | 0 W/m² | - |
| 1777627519 | 0.56° C | 74% | 983.8 hPa | 0 mm | - | 0 W/m² | - |
| 1777625719 | 1.11° C | 73% | 983.8 hPa | 0 mm | - | 0 W/m² | - |
| 1777621520 | 1.67° C | 75% | 983.8 hPa | 0 mm | - | 0 W/m² | - |
| 1777620918 | 1.67° C | 75% | 983.7 hPa | 0 mm | - | 0 W/m² | - |
| 1777619720 | 1.67° C | 74% | 983.8 hPa | 0 mm | - | 0 W/m² | - |
| 1777617937 | 1.67° C | 73% | 984 hPa | 0 mm | - | 0 W/m² | - |
| 1777614918 | 2.22° C | 70% | 984 hPa | 0 mm | - | 0 W/m² | - |
| 1777611319 | 2.22° C | 69% | 984.2 hPa | 0 mm | - | 0 W/m² | - |
| 1777592120 | 6.67° C | 55% | 983.5 hPa | 0 mm | - | 22 W/m² | - |
| 1777586739 | 7.22° C | 49% | 983 hPa | 0 mm | - | 122 W/m² | - |
| 1777586118 | 7.22° C | 49% | 982.9 hPa | 0 mm | - | 127 W/m² | - |
| 1777580720 | 7.78° C | 48% | 981.8 hPa | 0 mm | - | 550 W/m² | - |
| 1777580120 | 7.78° C | 49% | 981.7 hPa | 0 mm | - | 626 W/m² | - |
| 1777575318 | 6.67° C | 52% | 982.8 hPa | 0 mm | - | 220 W/m² | - |
| 1777572319 | 6.67° C | 54% | 982.4 hPa | 0 mm | - | 323 W/m² | - |
| 1777571719 | 6.67° C | 54% | 982.6 hPa | 0 mm | - | 197 W/m² | - |
| 1777570519 | 6.11° C | 53% | 982.6 hPa | 0 mm | - | 182 W/m² | - |
| 1777568719 | 6.67° C | 52% | 982.2 hPa | 0 mm | - | 418 W/m² | - |
| 1777563918 | 6.67° C | 51% | 981.9 hPa | 0 mm | - | 529 W/m² | - |
| 1777561521 | 5.56° C | 53% | 982 hPa | 0 mm | - | 475 W/m² | - |
| 1777560918 | 5.56° C | 54% | 981.5 hPa | 0 mm | - | 491 W/m² | - |
| 1777558530 | 5° C | 55% | 981.9 hPa | 0 mm | - | 313 W/m² | - |
| 1777556729 | 5° C | 58% | 982.1 hPa | 0 mm | - | 218 W/m² | - |
| 1777553130 | 3.89° C | 62% | 982.6 hPa | 0 mm | - | 88 W/m² | - |
* Rain latest hour (hover to see other rain measurements)
** Current wind speed in m/s (hover to see current wind gust speed)